| time (UTC) | temp F | wind direction | speed knots | gust knots | rain 1hr in | rain 24hr in | rain mn in | humidity % | barometer mb |
| 20260508193848 | 68 | 290 | 0.9 | 4.3 | 0.00 | 0.00 | 0.00 | 45 | 1010.9 |
| 20260508192828 | 68 | 224 | 3.5 | 11.3 | 0.00 | 0.00 | 0.00 | 44 | 1011.0 |
| 20260508191848 | 69 | 284 | 2.6 | 7.8 | 0.00 | 0.00 | 0.00 | 43 | 1011.0 |
| 20260508190828 | 70 | 184 | 10.4 | 10.4 | 0.00 | 0.00 | 0.00 | 43 | 1011.3 |
| 20260508185828 | 70 | 211 | 1.7 | 14.8 | 0.00 | 0.00 | 0.00 | 41 | 1011.3 |
| 20260508184828 | 69 | 215 | 2.6 | 4.3 | 0.00 | 0.00 | 0.00 | 45 | 1011.6 |
| 20260508150826 | 62 | 198 | 2.6 | 9.6 | 0.00 | 0.00 | 0.00 | 56 | 1014.8 |
| 20260508145826 | 62 | 269 | 1.7 | 8.7 | 0.00 | 0.00 | 0.00 | 54 | 1014.9 |
| 20260508144826 | 61 | 201 | 5.2 | 7.0 | 0.00 | 0.00 | 0.00 | 56 | 1014.9 |
| 20260508143826 | 61 | 300 | 1.7 | 6.1 | 0.00 | 0.00 | 0.00 | 56 | 1015.0 |
| 20260508142826 | 60 | 343 | 3.5 | 10.4 | 0.00 | 0.00 | 0.00 | 55 | 1015.0 |
| 20260508141825 | 59 | 306 | 1.7 | 8.7 | 0.00 | 0.00 | 0.00 | 56 | 1015.2 |
| 20260508140825 | 59 | 265 | 1.7 | 7.0 | 0.00 | 0.00 | 0.00 | 58 | 1015.3 |
| 20260508135825 | 58 | 262 | 2.6 | 8.7 | 0.00 | 0.00 | 0.00 | 57 | 1015.3 |
| 20260508134825 | 57 | 291 | 0.9 | 8.7 | 0.00 | 0.00 | 0.00 | 60 | 1015.4 |
| 20260508133826 | 56 | 186 | 2.6 | 4.3 | 0.00 | 0.00 | 0.00 | 59 | 1015.4 |
| 20260508092823 | 44 | 211 | 0.0 | 0.0 | 0.00 | 0.00 | 0.00 | 85 | 1014.7 |
| 20260508091823 | 44 | 211 | 0.0 | 0.0 | 0.00 | 0.00 | 0.00 | 85 | 1014.9 |
| 20260508090843 | 44 | 211 | 0.0 | 0.0 | 0.00 | 0.00 | 0.00 | 84 | 1014.9 |
| 20260508085824 | 43 | 212 | 0.0 | 0.0 | 0.00 | 0.00 | 0.00 | 84 | 1014.9 |
| 20260508050822 | 44 | 214 | 0.0 | 0.0 | 0.00 | 0.00 | 0.00 | 79 | 1015.2 |
| 20260508045822 | 44 | 212 | 0.0 | 0.0 | 0.00 | 0.00 | 0.00 | 78 | 1015.2 |
| 20260508044822 | 44 | 213 | 0.0 | 0.0 | 0.00 | 0.00 | 0.00 | 78 | 1015.3 |
| 20260508043821 | 44 | 211 | 0.0 | 0.0 | 0.00 | 0.00 | 0.00 | 78 | 1015.0 |
| 20260508042822 | 44 | 214 | 0.0 | 0.0 | 0.00 | 0.00 | 0.00 | 77 | 1015.0 |
| 20260508041821 | 44 | 213 | 0.0 | 0.0 | 0.00 | 0.00 | 0.00 | 78 | 1015.1 |
| 20260508040821 | 45 | 212 | 0.0 | 0.0 | 0.00 | 0.00 | 0.00 | 78 | 1015.0 |
| 20260508035821 | 45 | 211 | 0.0 | 0.0 | 0.00 | 0.00 | 0.00 | 78 | 1015.0 |